Volver al catálogo

CZ-3B R/B

ActivoHEO
NORAD 69571·ROCKET BODY·🇨🇳 China

Lanzado Jun 16, 2026 desde Xichang Satellite Launch Center

Loading…

Próximos Pases (próximas 24 horas)

TLE

ActualizadoSource: Space-Track

Época: Sep 10, 2026, 17:02 UTC

1 69571U 26136B   26253.71002862  .13307478 -16128-5  25761-2 0  9990
2 69571  63.2795 331.3706 4693320 171.7240 200.2671  6.41690908  2681

Sigue CZ-3B R/B en tiempo real con AllMySat

Download on the App Store